Home   Weather   Kiel   Past weeks

Flag for Germany Past Weather in Kiel, Schleswig-Holstein, Germany — Yesterday and Last 2 Weeks

Now
41 °F

Drizzle. More clouds than sun.


Feels Like: 32 °F
Forecast: 44 / 49 °F
Wind: 18 mph from Southwest

Location: Kiel / Holtenau Civilian

Current Time: Dec 7, 2016 at 5:35:25 pm

Latest Report: Dec 7, 2016 at 3:50 pm


Visibility: 5 mi

Pressure: 30.21 "Hg

Humidity: 93%

Dew Point: 39 °F

Location of KielLocation

Past Weather in Kiel — Graph

°F

Kiel Temperature Yesterday

Maximum temperature yesterday: 45 °F (at 12:50 pm)
Minimum temperature yesterday: 41 °F (at 6:20 am)
Average temperature yesterday: 42 °F

High & Low Weather Summary for the Past Weeks

 TemperatureHumidityPressure
High54 °F (Nov 22, 3:20 pm)100% (Nov 24, 6:50 am)30.54 "Hg (Nov 24, 6:50 am)
Low25 °F (Dec 3, 8:20 am)57% (Dec 2, 2:50 pm)29.86 "Hg (Nov 22, 3:20 pm)
Average40 °F86%30.24 "Hg
* Reported Nov 22 3:20 pm — Dec 7 3:50 pm, Kiel, Weather by CustomWeather, © 2016

Note: Actual official high and low records may vary slightly from our data, if they occured in-between our weather recording intervals... More about our weather records

Advertising

Kiel Weather History for the Previous 24 Hours

Scroll right to see more
 ConditionsComfort  
Time TempWeatherWind HumidityBarometerVisibility
3:50 pm
Wed, Dec 7
41 °FDrizzle. More clouds than sun.18 mph93%30.21 "Hg5 mi
3:20 pm41 °FDrizzle. Low clouds.20 mph87%30.24 "Hg5 mi
2:50 pm41 °FDrizzle. Low clouds.17 mph87%30.24 "Hg4 mi
2:20 pm39 °FDrizzle. Low clouds.20 mph93%30.24 "Hg4 mi
1:50 pm39 °FDrizzle. Low clouds.17 mph93%30.24 "Hg4 mi
1:20 pm39 °FDrizzle. Cloudy.17 mph93%30.24 "Hg4 mi
12:50 pm39 °FDrizzle. More clouds than sun.20 mph87%30.27 "Hg4 mi
12:20 pm39 °FDrizzle. Mostly cloudy.20 mph87%30.30 "Hg6 mi
11:50 am39 °FDrizzle. Cloudy.20 mph87%30.30 "HgN/A
11:20 am37 °FDrizzle. Overcast.21 mph87%30.30 "Hg6 mi
10:50 am37 °FDrizzle. Mostly cloudy.20 mph87%30.33 "HgN/A
10:20 am37 °FDrizzle. Mostly cloudy.20 mph81%30.33 "Hg6 mi
9:50 am37 °FClear.17 mph81%30.33 "Hg6 mi
9:20 am37 °FMostly cloudy.15 mph81%30.33 "HgN/A
8:50 am37 °FSunny.14 mph81%30.33 "Hg10 mi
8:20 am36 °FClear.12 mph81%30.33 "Hg10 mi
Weather by CustomWeather, © 2016

See weather overviewHow to use our weather pages